This demonstration page uses our WeatherBlox Daily Observations layout. Learn more.

Left ArrowRight Arrow

Hourly Observations for August 4, 2020

Temp ( °F °C ) Dew Point ( °F °C ) Humidity (%) Winds ( mph kmh ) Pressure ( in mb ) Visibility ( mi km ) Precip ( " mm )
12:52 am 00:52 Clear 62 16.7 58 14.4 86 86 N 7 11 30.06 1018 10 16 0.00 0.00
1:52 am 01:52 Clear 61 16.1 58 14.4 90 90 N 5 7 30.06 1018 10 16 0.00 0.00
2:52 am 02:52 Clear 60 15.6 58 14.4 93 93 N 6 9 30.06 1018 10 16 0.00 0.00
3:52 am 03:52 Clear 60 15.6 58 14.4 93 93 NNE 5 7 30.05 1018 10 16 0.00 0.00
4:52 am 04:52 Clear 58 14.4 57 13.9 97 97 NW 5 7 30.05 1018 10 16 0.00 0.00
5:52 am 05:52 Mostly Cloudy 58 14.4 57 13.9 97 97 Calm 30.06 1018 10 16 0.00 0.00
6:52 am 06:52 Partly Cloudy 58 14.4 56 13.3 93 93 N 3 6 30.06 1018 10 16 0.00 0.00
7:52 am 07:52 Sunny 61 16.1 59 15 93 93 N 5 7 30.08 1019 10 16 0.00 0.00
8:52 am 08:52 Partly Cloudy 66 18.9 59 15 78 78 NE 8 13 30.10 1019 10 16 0.00 0.00
9:52 am 09:52 Partly Cloudy 67 19.4 57 13.9 71 71 NNE 8 13 30.10 1019 10 16 0.00 0.00
10:52 am 10:52 Mostly Cloudy 71 21.7 52 11.1 51 51 NNE 9 15 30.10 1019 10 16 0.00 0.00
11:52 am 11:52 Partly Cloudy 73 22.8 53 11.7 50 50 VRB 6 9 30.11 1020 10 16 0.00 0.00
12:52 pm 12:52 Mostly Cloudy 75 23.9 54 12.2 48 48 N 13 20 30.10 1019 10 16 0.00 0.00
1:52 pm 13:52 Mostly Cloudy 72 22.2 53 11.7 52 52 N 8 13 30.10 1019 10 16 0.00 0.00
2:52 pm 14:52 Partly Cloudy 76 24.4 53 11.7 45 45 NNW 7 11 30.09 1019 10 16 0.00 0.00
3:52 pm 15:52 Mostly Cloudy 75 23.9 54 12.2 48 48 NNE 8 13 30.08 1019 10 16 0.00 0.00
4:52 pm 16:52 Mostly Sunny 75 23.9 54 12.2 48 48 N 8 13 30.07 1018 10 16 0.00 0.00
5:52 pm 17:52 Sunny 73 22.8 55 12.8 53 53 NNE 12 19 30.07 1018 10 16 0.00 0.00
6:52 pm 18:52 Sunny 70 21.1 54 12.2 57 57 NE 10 17 30.06 1018 10 16 0.00 0.00
7:52 pm 19:52 Sunny 69 20.6 56 13.3 63 63 NE 7 11 30.06 1018 10 16 0.00 0.00
8:52 pm 20:52 Clear 66 18.9 56 13.3 70 70 NNE 3 6 30.06 1018 10 16 0.00 0.00
9:52 pm 21:52 Clear 64 17.8 56 13.3 75 75 ENE 6 9 30.07 1018 10 16 0.00 0.00
10:52 pm 22:52 Clear 63 17.2 56 13.3 78 78 ENE 5 7 30.08 1019 10 16 0.00 0.00
11:52 pm 23:52 Clear 60 15.6 56 13.3 86 86 Calm 30.09 1019 10 16 0.00 0.00

Powered by AerisWeather